Tracking 19245 objects as of 18-Aug-2018
HD Live streaming from Space Station
objects crossing your sky now

CZ-3 R/B

Track CZ-3 R/B now!
10-day predictions


NORAD ID: 20559
Int'l Code: 1990-030B
Perigee: 243.1 km
Apogee: 16,295.5 km
Inclination: 30.8 °
Period: 293.8 minutes
Semi major axis: 14640 km
RCS: 10.1665 m2 (large)
Launch date: April 7, 1990
Source: People's Republic of China (PRC)
Launch site: Xichang Space Center, China (XSC)

Note: This is a ROCKET BODY
aabbcc
Your satellite tracking list
Your tracking list is empty




NASA's NSSDC Master Catalog

Two Line Element Set (TLE):
1 20559U 90030B   18230.37250990  .00008470  00000-0  51201-3 0  9993
2 20559  30.8279 274.9577 5482284 185.6323 163.9868  4.90092799353915
Source of the keplerian elements: AFSPC